Location: *
(27.2500°N, 113.2500°W)
Time: 07:50:49
(UTC+00:00)

Daily predictions for brighter satellites

Satellite Brightness Start Highest point End
(mag) Time Altitude Azimuth Time Altitude Azimuth Time Altitude Azimuth
USA 234 4.5 12:00:25 10° ESE 12:06:27 42° NE 12:12:30 10° NNW
Cosmos 1066 Rocket 4.2 12:01:06 10° SSW 12:06:54 73° W 12:12:46 10° N
SL-16 R/B 2.4 12:03:25 10° NNW 12:08:49 47° WSW 12:14:11 10° S
ALOS 3.5 12:04:38 10° NNE 12:09:04 43° E 12:13:29 10° S
Lacrosse 5 3.8 12:09:32 10° S 12:13:44 26° ESE 12:17:56 10° ENE
SWIFT 3.4 12:15:17 21° SW 12:17:11 30° S 12:20:56 10° SE
Meteor 2-13 Rocket 4.4 12:14:13 10° S 12:20:15 83° W 12:26:19 10° N
Cosmos 1092 Rocket 4.5 12:14:37 10° SSW 12:20:29 39° W 12:26:21 10° NNW
Meteor 1-23 Rocket 4.5 12:15:18 10° SSW 12:20:44 47° W 12:26:15 10° N
CZ-2C R/B 3.1 12:16:58 10° NNW 12:20:57 30° WNW 12:24:00 15° SW
ADEOS 4.4 12:18:10 10° NNW 12:22:37 29° WNW 12:26:15 14° SW
Meteor 1-31 Rocket 2.9 12:20:00 10° N 12:23:50 55° WNW 12:27:38 10° SSW
Lacrosse 4 Rocket 4.3 12:22:20 10° SSE 12:25:22 19° ESE 12:28:26 10° ENE
Meteor 1-15 Rocket 4.2 12:22:07 10° N 12:27:44 79° W 12:33:26 10° S
Cosmos 1689 Rocket 3.0 12:26:09 10° SSW 12:28:45 27° W 12:31:22 10° NW
Cosmos 1975 Rocket 3.0 12:26:18 10° S 12:30:37 86° W 12:34:59 10° N
H-2A R/B 2.2 12:26:51 10° N 12:30:48 70° WNW 12:34:37 10° SSW
Palapa 6 Rocket 3.4 12:28:46 16° WSW 12:31:34 44° S 12:35:48 10° ESE
Cosmos 1603 4.3 12:26:10 10° N 12:31:44 62° ENE 12:37:18 10° SSE
Cosmos 2026 Rocket 4.3 12:26:35 10° SSW 12:32:21 43° W 12:38:06 10° N
Delta 142 3.9 12:27:34 13° W 12:32:39 78° N 12:37:11 10° E
CRYOSAT 2 4.4 12:28:35 10° N 12:33:26 88° E 12:38:18 10° S
Okean 1 Rocket 3.1 12:30:20 10° NNW 12:34:37 54° W 12:38:54 10° S
PSLV R/B 4.5 12:30:36 10° NNE 12:34:37 61° E 12:38:33 10° S
Cosmos 2263 Rocket 3.1 12:31:07 12° WSW 12:35:27 29° WNW 12:40:20 10° N
BREEZE-M DEB (TANK) 1.3 12:32:49 10° SW 12:35:52 71° SE 12:38:08 10° NE
SeaSat 1 2.5 12:33:35 10° SSE 12:38:31 86° ENE 12:43:28 10° NNW
Meteor PRIRODA 3.6 12:35:41 10° N 12:39:19 67° WNW 12:42:58 10° SSW
ATLAS 5 CENTAUR R/B 3.0 12:34:15 10° NNW 12:40:30 70° ENE 12:47:29 10° SE
Okean 2 3.4 12:36:41 10° SSW 12:40:45 62° W 12:44:49 10° N
SJ-12 3.8 12:38:23 10° N 12:42:28 84° W 12:46:30 10° SSW
COSMO-SKYMED 1 3.7 12:38:29 10° SSE 12:42:40 49° ENE 12:46:50 10° N
STARLINK-1132 3.7 12:41:01 10° SSW 12:44:34 63° SE 12:48:07 10° NE
STARLINK-1177 3.5 12:44:05 10° SSW 12:47:40 69° SE 12:51:15 10° NE
STARLINK-1179 2.8 12:44:38 10° SW 12:47:43 89° NW 12:50:49 10° NE
STARLINK-1149 3.6 12:44:10 10° SSW 12:47:51 72° SE 12:51:34 10° NE
STARLINK-1176 2.8 12:45:04 10° SW 12:48:10 88° NW 12:51:16 10° NE
Cosmos 1818 3.8 12:44:06 10° NW 12:49:17 47° WSW 12:54:26 10° S
GP-B 4.2 12:45:02 10° NNE 12:49:19 49° E 12:53:36 10° SSE
Shenzhou-11 Module 4.0 12:47:59 10° WNW 12:49:21 13° NNW 12:50:44 10° N
STARLINK-1151 3.5 12:46:01 10° SSW 12:49:26 65° SE 12:52:51 10° NE
STARLINK-1167 3.4 12:46:44 10° SW 12:50:18 76° SE 12:53:54 10° NE
STARLINK-1173 2.8 12:47:39 10° SW 12:50:45 89° NW 12:53:51 10° NE
STARLINK-1133 3.4 12:47:23 10° SSW 12:50:48 68° SE 12:54:14 10° NE
PSLV R/B 4.4 12:46:59 10° S 12:50:55 39° W 12:54:51 10° NNW
STARLINK-1136 2.8 12:48:06 10° SW 12:51:11 88° NW 12:54:17 10° NE
STARLINK-1139 3.4 12:48:46 10° SSW 12:52:12 72° SE 12:55:39 10° NE
STARLINK-1174 3.3 12:50:10 10° SW 12:53:37 75° SE 12:57:04 10° NE
Cosmos 1766 3.2 12:50:01 10° N 12:53:53 85° W 12:57:44 10° S
